• Join FlightAware (Why Join?)
  • Login
  • US Flag GB Flag 
05:41 EDT


 

Airport Tracker/Info


-or-


 

Live Flight TrackerFlight Track Log ✈ N469S ✈ 02-May-2013 ✈ KCPS - KMQJ

Flight Track Log - Related Links

Times and Time Zones

All times are in EDT time to prevent confusion due to time zone crossing. See the N469S flight status page for this flight to view local times or setup timezone preferences in your user account.

Time Position Orientation Groundspeed Altitude Reporting Facility
EDT Latitude Longitude Course Direction KTS MPH feet Rate Location/Type
15:52 38.5500 -90.1667 27° Northeast 131 151 2,200  Level Gateway (St. Louis) TRACON
15:53 38.5306 -90.1283 123° Southeast 127 146 2,900 900 Climbing Kansas City Center
15:54 38.5081 -90.0961 132° Southeast 125 144 3,900 540 Climbing Kansas City Center
15:55 38.5236 -90.0656 57° Northeast 150 173 4,100 60 Climbing Kansas City Center
15:56 38.5672 -90.0358 28° Northeast 168 193 4,100  Level Kansas City Center
15:57 38.8341 -89.9551 27° Northeast  Level FlightAware Approximate
15:57 38.6125 -90.0025 30° Northeast 180 207 4,100  Level Kansas City Center
15:58 38.8797 -89.9247 27° Northeast  Level FlightAware Approximate
15:58 38.6672 -89.9592 32° Northeast 189 217 4,100  Level Kansas City Center
15:59 38.7131 -89.9231 32° Northeast 192 221 4,100  Level Kansas City Center
16:00 38.7575 -89.8839 34° Northeast 194 223 4,100  Level Kansas City Center
16:01 38.7983 -89.8372 42° Northeast 195 224 4,200 420 Climbing Kansas City Center
16:02 38.8364 -89.7992 38° Northeast 187 215 5,000 780 Climbing Kansas City Center
16:03 38.8894 -89.8011 358° North 168 193 5,900 480 Climbing Kansas City Center
16:04 38.9403 -89.7981 North 168 193 6,100 480 Climbing Kansas City Center
16:05 38.9917 -89.7972 North 181 208 6,900 720 Climbing Kansas City Center
16:06 39.0408 -89.7950 North 167 192 7,600 600 Climbing Kansas City Center
16:07 39.0764 -89.7622 36° Northeast 170 196 8,200 600 Climbing Kansas City Center
16:08 39.1072 -89.7181 48° Northeast 167 192 8,900 720 Climbing Kansas City Center
16:09 39.1406 -89.6717 47° Northeast 165 190 9,700 660 Climbing Kansas City Center
16:10 39.1714 -89.6281 48° Northeast 164 189 10,300 540 Climbing Kansas City Center
16:11 39.2017 -89.5856 47° Northeast 168 193 10,900 480 Climbing Kansas City Center
16:12 39.2342 -89.5406 47° Northeast 170 196 11,400 600 Climbing Kansas City Center
16:13 39.2681 -89.4978 44° Northeast 172 198 12,200 660 Climbing Kansas City Center
16:14 39.3064 -89.4425 48° Northeast 172 198 12,800 420 Climbing Kansas City Center
16:15 39.3422 -89.3936 47° Northeast 182 209 13,100 120 Climbing Kansas City Center
16:17 39.3642 -89.3258 67° East 199 229 13,100 -60 Level Kansas City Center
16:18 39.4031 -89.2692 48° Northeast 210 242 13,000 -60 Descending Kansas City Center
16:19 39.4475 -89.2119 45° Northeast 212 244 13,000  Level Kansas City Center
16:20 39.4886 -89.1578 45° Northeast 210 242 13,000  Level Kansas City Center
16:21 39.5317 -89.1064 43° Northeast 211 243 13,000  Level Kansas City Center
16:22 39.5753 -89.0525 44° Northeast 214 246 13,000  Level Kansas City Center
16:23 39.6258 -88.9900 44° Northeast 211 243 13,000  Level Kansas City Center
16:24 39.6694 -88.9367 43° Northeast 214 246 13,000  Level Kansas City Center
16:25 39.7128 -88.8831 44° Northeast 216 249 13,000  Level Kansas City Center
16:26 39.7431 -88.8189 58° Northeast 210 242 13,000  Level Kansas City Center
16:27 39.7481 -88.7478 85° East 201 231 13,000  Level Kansas City Center
16:28 39.7425 -88.6775 96° East 197 227 13,000  Level Kansas City Center
16:29 39.7392 -88.5914 93° East 199 229 13,000  Level Kansas City Center
16:30 39.7364 -88.5175 93° East 203 234 13,000  Level Kansas City Center
16:31 39.7425 -88.4453 84° East 201 231 13,000  Level Kansas City Center
16:32 39.7508 -88.3714 82° East 202 232 13,000  Level Kansas City Center
16:33 39.7814 -88.3072 58° Northeast 210 242 13,000  Level Kansas City Center
16:34 39.8161 -88.2428 55° Northeast 212 244 13,000  Level Kansas City Center
16:35 39.8514 -88.1683 58° Northeast 208 239 13,000  Level Kansas City Center
16:36 39.8811 -88.1106 56° Northeast 199 229 13,000  Level Kansas City Center
16:37 39.9097 -88.0481 59° Northeast 201 231 13,000  Level Kansas City Center
16:38 39.9422 -87.9853 56° Northeast 208 239 13,000  Level Kansas City Center
16:39 39.9842 -87.9236 48° Northeast 220 253 13,000 -120 Level Kansas City Center
16:41 39.9727 -87.8433 100° East  Level FlightAware Approximate
16:44 40.0919 -87.5911 101° East 205 236 12,500  Level Indianapolis Center
16:45 40.0694 -87.5147 100° East 221 254 11,800 -540 Descending Indianapolis Center
16:46 40.0822 -87.5215 100° East  Level Estimated
16:46 40.0442 -87.4422 114° Southeast 221 254 11,500  Level Indianapolis Center
16:47 40.0119 -87.3611 117° Southeast 214 246 11,100 -300 Descending Indianapolis Center
16:48 39.9068 -87.3879 101° East  Level FlightAware Approximate
16:49 39.8973 -87.3229 101° East  Level FlightAware Approximate
16:49 39.9817 -87.2972 122° Southeast 210 242 10,900  Level Indianapolis Center
16:50 39.8877 -87.2580 101° East  Level FlightAware Approximate
16:50 39.9669 -87.2272 105° East 204 235 10,900  Level Indianapolis Center
16:51 39.9600 -87.1556 97° East 202 232 10,900  Level Indianapolis Center
16:52 39.9561 -87.0831 94° East 201 231 10,900  Level Indianapolis Center
16:53 40.0176 -87.0651 100° East  Level Estimated
16:53 39.9508 -87.0111 95° East 201 231 10,900  Level Indianapolis Center
16:54 39.9436 -86.9244 96° East 202 232 11,100  Climbing Indianapolis Center
16:55 39.9389 -86.8539 95° East 198 228 11,000 -60 Descending Indianapolis Center
16:56 39.9314 -86.7808 98° East 202 232 11,000 -420 Level Indianapolis Center
16:57 39.9233 -86.7058 98° East 206 237 10,200 -840 Descending Indianapolis Center
16:58 39.9158 -86.6253 97° East 215 247 9,300 -960 Descending Indianapolis Center
16:59 39.9081 -86.5306 96° East 220 253 8,300 -1,020 Descending Indianapolis Center
17:00 39.8989 -86.4550 99° East 216 249 7,200 -1,020 Descending Indianapolis Center
17:01 39.8903 -86.3792 98° East 213 245 6,300 -1,020 Descending Indianapolis Center
17:02 39.8978 -86.3047 82° East 211 243 5,200 -1,020 Descending Indianapolis Center
17:03 39.9000 -86.2500 87° East 204 235 4,500 -660 Descending Indianapolis TRACON
17:04 39.9000 -86.1833 90° East 181 208 4,100 -240 Descending Indianapolis TRACON
17:05 39.8833 -86.1167 108° East 160 184 4,100 -120 Level Indianapolis TRACON
17:05 39.8833 -86.1089 90° East 175 201 4,000 -720 Descending Indianapolis Center
17:06 39.8733 -86.0492 102° East 168 193 3,100 -960 Descending Indianapolis Center
17:07 39.8697 -85.9767 94° East 168 193 2,100 -780 Descending Indianapolis Center
17:08 39.8711 -85.9264 88° East 154 177 1,600 -420 Descending Indianapolis Center
17:09 39.8644 -85.8947 105° East 138 159 1,300 -300 Descending Indianapolis Center